NOAA 16 DEB, 41288

Orbit data source: Space-Track

NOAA 16 DEB, 41288 is space debris in SSO originally from a launch on Thu, 21 Sep 2000 UTC launched from the Air Force Western Test Range (AFWTR). Debris objects in space refer to the collection of defunct objects orbiting the Earth. Examples of debris include non-operational satellites, rocket bodies, and fragments generated from explosions, collisions, or faulty payload assembly.

Loading next visibility...
Identifier
41288, 2000-055GQ
Orbit
SSO
Country
Flag of USUS
Related business
Manufacturer
Unknown
Mission
Spacecraft
Bus & Motor
Unknown
Mass
Unknown
Launch date (UTC)
2000-09-21 (26 years ago)
Launch vehicle
Unknown
Launch site
Air Force Western Test Range (AFWTR)
Object type
Payload
Rocket body
Debris
Shape & HBR
Unknown shape, 0.1 m
Radar Cross Section
Small (<0.1 m²)

Expand to show TLE details & history
Last TLE update: 7 hours ago

TLE from 7 hours ago
0 NOAA 16 DEB
1 41288U 00055GQ  26126.55608784  .00006814  00000-0  22913-2 0  9991
2 41288  98.8988 233.8201 0019953 349.2165  10.8590 14.37345262534362
Epoch: 2026-05-06T13:20Z
TLE epoch observation values (Epoch: 2026-05-06T13:20:45.989Z)
Latitude
-0.00002°
Longitude
169.2136°
Altitude
756.211 km
Speed
7.484 km/s
True Right ascension
15h 35m 16s
True Declination
0° 00' 00"
Sunlit
Object was in full shadow at epoch
Visualization orbit readout
Latitude
Unknown
Longitude
Unknown
Altitude
Unknown
Speed
Unknown
Apparent Right ascension
Unknown
Apparent Declination
Unknown
Sunlit
N/A
Visualization observer readout
Local Sidereal Time
04:02:16
Azimuth
Unknown
Elevation
Unknown
Doppler factor
Unknown
Orbital elements
Apogee altitude
778.679 km
Perigee altitude
750.176 km
Semi-major axis
7,142.565 km
Eccentricity
0.002
Inclination
98.8988°
RAAN
233.8201°
Arg. of periapsis
349.2165°
True anomaly
10.90218°
Mean anomaly
10.859°
Eccentric anomaly
10.88058°
Mean motion
3.59552 °/min
Orbital period
100.12 mins
BSTAR
0.0022913
Loading maneuver chart data...
Computing Atmospheric mass density...
Loading historical data...
Loading historical data...
Loading historical data...
Loading historical data...
Loading historical data...
Loading historical data...
Loading historical data...

Documentation

Showing up to 5 results
|